Retour au catalogue

SL-16 DEB

ActifLEO
NORAD 22610·DEBRIS·🇷🇺 Russia

Lancé Mar 26, 1993 depuis Baikonur Cosmodrome

Loading…

Prochains Passages (prochaines 24 heures)

TLE

FraisSource: Space-Track

Époque: Sep 14, 2026, 12:09 UTC

1 22610U 93016U   26257.50657295 -.00000009  00000-0  33136-4 0  9991
2 22610  70.9993 295.7367 0213547 185.0471 174.8477 13.67907234670820

Suivez SL-16 DEB en temps réel avec AllMySat

Download on the App Store